Flag for Bosnia-Herzegovina Weather past 2 weeks in Tuzla, Bosnia-Herzegovina

Now
45 °F

Passing clouds.


Feels Like: 42 °F
Forecast: 35 / 53 °F
Wind: 5 mph from East

Location: Tuzla

Current Time: Oct 25, 2014 at 6:43:54 AM

Latest Report: Oct 25, 2014 at 6:00 AM


Visibility: N/A

Pressure: 30.15 "Hg

Humidity: 100%

Dew point: 45 °F

Location of TuzlaLocation

Historic Weather in Tuzla — Graph

°F

Tuzla temperature yesterday

Maximum temperature yesterday: 50 °F (at 1:00 PM)
Minimum temperature yesterday: 43 °F (at 6:00 AM)
Average temperature yesterday: 47 °F

Past Weeks' High & Low Weather Summary

 TemperatureHumidityPressure
High81 °F (Oct 10, 2:00 PM)100% (Oct 9, 9:00 PM)30.36 "Hg (Oct 9, 9:00 PM)
Low36 °F (Oct 22, 3:00 PM)39% (Oct 13, 3:00 PM)29.53 "Hg (Oct 22, 6:00 AM)
Average60 °F87%29.98 "Hg
* Reported Oct 9 9:00 PM — Oct 24 9:00 PM, Tuzla, Weather by CustomWeather, © 2014

Note: Actual official high and low records may vary slightly from our data, if they occured in-between our weather recording intervals... More about our weather records

Advertising

Tuzla weather history for previous 24 hours

 ConditionsComfort  
Time TempWeatherWind HumidityBarometerVisibility
9:00 PM
Oct 24
46 °FPartly cloudy.2 mph100%30.07 "Hg4 mi
8:00 PM46 °FPartly cloudy.1 mph100%30.04 "Hg4 mi
7:00 PM46 °FMostly cloudy.3 mph100%30.04 "Hg4 mi
6:00 PM48 °FMostly cloudy.2 mph100%30.01 "Hg4 mi
5:00 PM48 °FPartly sunny.6 mph100%30.01 "HgN/A
4:00 PM50 °FBroken clouds.5 mph88%29.98 "HgN/A
3:00 PM50 °FBroken clouds.5 mph88%29.98 "HgN/A
1:00 PM50 °FMostly cloudy.1 mph82%29.95 "HgN/A
12:00 PM48 °FMostly cloudy.2 mph100%29.95 "HgN/A
11:00 AM46 °FMostly cloudy.1 mph100%29.95 "Hg5 mi
10:00 AM46 °FMostly cloudy.2 mph100%29.92 "Hg5 mi
9:00 AM45 °FMostly cloudy.2 mph100%29.89 "Hg5 mi
8:00 AM45 °FMostly cloudy.2 mph100%29.86 "Hg5 mi
7:00 AM43 °FMostly cloudy.1 mph100%29.83 "Hg4 mi
6:30 AM43 °FMostly cloudy.1 mph100%29.83 "Hg4 mi
6:00 AM43 °FLight rain. Fog.2 mph100%29.80 "Hg3 mi
Weather by CustomWeather, © 2014

See weather overviewHow to use our weather pages